Regional Weather Roundup
Issued by NWS

Home | Current Version | Previous Version | Text Only | Print | Product List | Glossary Off
Versions: 1 2 3 4 5 6 7 8 9 10 11 12 13 14 15 16 17 18 19 20 21 22 23 24 25 26 27 28 29 30 31 32 33 34 35 36 37 38 39 40 41 42 43 44 45 46 47 48 49 50

000
ASUS43 KBIS 240910
RWRND

NORTH DAKOTA REGIONAL WEATHER ROUNDUP
NATIONAL WEATHER SERVICE BISMARCK ND
400 AM CDT THU APR 24 2014

NOTE: "FAIR" INDICATES FEW OR NO CLOUDS BELOW 12,000 FEET WITH NO
SIGNIFICANT WEATHER AND/OR OBSTRUCTIONS TO VISIBILITY.


NDZ001>003-009>011-017-241000-
NORTHWEST NORTH DAKOTA

CITY           SKY/WX    TMP DP  RH WIND       PRES   REMARKS
WILLISTON      CLEAR     39  26  59 SW9       29.68R
MINOT          CLEAR     39  36  89 S6        29.66S
MINOT AFB      CLEAR     35  35 100 S8        29.66S
$$

NDZ018>021-031>035-040>046-241000-
SOUTHWEST NORTH DAKOTA

CITY           SKY/WX    TMP DP  RH WIND       PRES   REMARKS
BISMARCK       PTCLDY    35 N/A N/A W6        29.73F
DICKINSON      CLEAR     36  23  59 W12       29.72R
GARRISON         N/A     37  36  96 S7        29.70R
HETTINGER ARPT CLEAR     30  23  75 W7        29.78S
$$

NDZ004>008-012>016-024-026-027-054-241000-
NORTHEAST NORTH DAKOTA

CITY           SKY/WX    TMP DP  RH WIND       PRES   REMARKS
GRAND FORKS    CLOUDY    39  37  92 SE13      29.79S
GRND FRKS AFB  CLOUDY    38  38 100 SE10      29.78F
DEVILS LAKE    CLOUDY    37  34  87 S8        29.72S
$$

NDZ022-023-025-028>030-036>039-047>053-241000-
SOUTHEAST NORTH DAKOTA

CITY           SKY/WX    TMP DP  RH WIND       PRES   REMARKS
FARGO          CLOUDY    42  38  85 SE10      29.77F
JAMESTOWN      CLOUDY    36  35  96 S3        29.72F FOG
$$




USA.gov is the U.S. government's official web portal to all federal, state and local government web resources and services.